Agia Marina, Greece

3:23 PM EET on December 11, 2017 (GMT +0200)
Odysseas Elytis | | Change Station

Elev 16 ft 39.07 °N, 26.60 °E | Updated 33 minutes ago

Clear
Clear
61 °F
Feels Like 61 °F
N
15
Wind Variable Wind from SSW

Today
High -- | Low -- °F
--% Chance of Precip.
Yesterday
High -- | Low -- °F
Precip. -- in
Pressure 30.21 in
Visibility 6.2 miles
Clouds Few 2000 ft
Dew Point 48 °F
Humidity 63%
Rainfall 0.00 in
Snow Depth Not available.
7:22 AM 4:51 PM
Last Quarter, 37% visible
METAR LGMT 111250Z 21013KT 130V240 9999 FEW020 16/09 Q1023
Pressure 30.21 in
Visibility 6.2 miles
Clouds Few 2000 ft
Dew Point 48 °F
Humidity 63%
Rainfall 0.00 in
Snow Depth Not available.
7:22 AM 4:51 PM
Last Quarter, 37% visible
METAR LGMT 111250Z 21013KT 130V240 9999 FEW020 16/09 Q1023

Get Severe Weather Alerts

Thanks for signing up!

Be on the lookout for a verification email in your inbox.

You'll start receiving the daily forecast at 6 AM.

×

10-Day Weather Forecast

×

Almanac

Astronomy

Dec. 11, 2017 Rise Set
Actual Time
Civil Twilight
Nautical Twilight
Astronomical Twilight
Moon
Length of Visible Light
Length of Day
Tomorrow will be .
, % of the Moon is Illuminated

Today's Extremes

Country Highs Country Lows

Community

WunderPhotos

Category 6

Welcome to Category 6. This is the collective home for Weather Underground's featured writeups by Dr. Jeff Masters (right), Bob Henson (left), Chris Burt, and other regular contributors.

Nearby

Air Quality

  Air Quality AQ Index Pollutant
Not available.

Snow Depth

Station Depth Elevation

Earthquake Activity

City Distance Mag. Time & Date
Minimum magnitude displayed is 2.5.

Coastal Water Temperatures

Place Temperature

Stations

Nearby Weather Stations

Station Location Temp. Windchill Dew Point Humidity Wind Precip. Elev Updated Type